TimeCST,TemperatureF,Dew PointF,Humidity,Sea Level PressureIn,VisibilityMPH,Wind Direction,Wind SpeedMPH,Gust SpeedMPH,PrecipitationIn,Events,Conditions,WindDirDegrees,DateUTC
12:08 AM,28.0,26.1,92,30.40,1.8,NNW,18.4,-,0.00,Snow,Light Snow,340,2013-11-22 06:08:00
12:27 AM,27.0,25.0,92,30.40,2.5,NNW,17.3,-,0.00,Snow,Light Snow,330,2013-11-22 06:27:00
12:53 AM,27.0,24.1,89,30.45,1.5,NNW,19.6,27.6,0.00,Snow,Light Snow,340,2013-11-22 06:53:00
1:02 AM,26.1,24.1,92,30.42,1.0,NNW,19.6,-,0.01,Snow,Light Snow,340,2013-11-22 07:02:00
1:11 AM,26.1,24.1,92,30.42,1.8,NNW,17.3,25.3,0.01,Snow,Light Snow,330,2013-11-22 07:11:00
1:18 AM,26.1,24.1,92,30.43,3.0,NNW,18.4,-,0.01,Snow,Light Snow,330,2013-11-22 07:18:00
1:32 AM,26.1,23.0,88,30.43,4.0,NNW,21.9,29.9,0.01,Snow,Light Snow,340,2013-11-22 07:32:00
1:46 AM,25.0,23.0,92,30.43,2.0,NNW,21.9,26.5,0.01,Snow,Light Snow,340,2013-11-22 07:46:00
1:53 AM,25.0,23.0,92,30.47,2.0,NNW,24.2,-,0.01,Snow,Light Snow,340,2013-11-22 07:53:00
2:07 AM,25.0,23.0,92,30.43,2.5,NNW,19.6,-,0.00,Snow,Light Snow,340,2013-11-22 08:07:00
2:15 AM,25.0,23.0,92,30.43,3.0,NNW,20.7,-,0.00,Snow,Light Snow,340,2013-11-22 08:15:00
2:34 AM,25.0,21.9,88,30.44,8.0,NNW,21.9,-,0.00,Snow,Light Snow,340,2013-11-22 08:34:00
2:53 AM,25.0,21.9,88,30.48,10.0,NNW,18.4,-,0.00,,Overcast,340,2013-11-22 08:53:00
3:53 AM,24.1,21.0,88,30.50,10.0,NNW,19.6,-,N/A,,Overcast,340,2013-11-22 09:53:00
4:01 AM,24.1,21.0,88,30.47,10.0,NNW,23.0,27.6,N/A,,Overcast,340,2013-11-22 10:01:00
4:25 AM,24.1,21.0,88,30.47,10.0,North,20.7,-,N/A,,Overcast,350,2013-11-22 10:25:00
4:53 AM,24.1,21.0,88,30.52,10.0,NNW,17.3,-,N/A,,Overcast,340,2013-11-22 10:53:00
5:53 AM,21.9,19.0,89,30.55,10.0,NNW,17.3,-,N/A,,Partly Cloudy,340,2013-11-22 11:53:00
6:53 AM,19.9,16.0,85,30.57,10.0,NNW,12.7,-,N/A,,Clear,340,2013-11-22 12:53:00
7:53 AM,19.0,14.0,81,30.58,10.0,NNW,11.5,-,N/A,,Clear,340,2013-11-22 13:53:00
8:53 AM,19.9,15.1,81,30.58,10.0,NNW,12.7,-,N/A,,Clear,340,2013-11-22 14:53:00
9:53 AM,21.0,16.0,81,30.59,10.0,North,12.7,-,N/A,,Clear,350,2013-11-22 15:53:00
10:53 AM,21.9,17.1,82,30.63,10.0,NNW,12.7,-,N/A,,Clear,330,2013-11-22 16:53:00
11:53 AM,24.1,18.0,77,30.63,10.0,NW,9.2,-,N/A,,Clear,310,2013-11-22 17:53:00
12:53 PM,24.1,17.1,75,30.64,10.0,NW,13.8,-,N/A,,Clear,310,2013-11-22 18:53:00
1:53 PM,23.0,16.0,74,30.64,10.0,WNW,11.5,-,N/A,,Clear,300,2013-11-22 19:53:00
2:53 PM,23.0,16.0,74,30.62,10.0,West,9.2,-,N/A,,Clear,280,2013-11-22 20:53:00
3:53 PM,23.0,14.0,68,30.61,10.0,WNW,9.2,-,N/A,,Clear,290,2013-11-22 21:53:00
4:53 PM,19.0,12.9,77,30.60,10.0,West,6.9,-,N/A,,Clear,270,2013-11-22 22:53:00
5:53 PM,14.0,10.0,84,30.60,10.0,West,5.8,-,N/A,,Clear,270,2013-11-22 23:53:00
6:53 PM,14.0,10.0,84,30.59,10.0,West,8.1,-,N/A,,Clear,260,2013-11-23 00:53:00
7:53 PM,12.0,8.1,84,30.60,10.0,West,8.1,-,N/A,,Clear,260,2013-11-23 01:53:00
8:53 PM,10.9,8.1,88,30.58,10.0,West,8.1,-,N/A,,Clear,260,2013-11-23 02:53:00
9:53 PM,10.9,7.0,84,30.61,10.0,WNW,5.8,-,N/A,,Clear,290,2013-11-23 03:53:00
10:53 PM,12.0,7.0,80,30.59,10.0,WNW,8.1,-,N/A,,Clear,290,2013-11-23 04:53:00
11:53 PM,14.0,8.1,77,30.61,10.0,WNW,8.1,-,N/A,,Clear,290,2013-11-23 05:53:00